| time (UTC) | temp F | wind direction | speed knots | gust knots | rain 1hr in | rain 24hr in | rain mn in | humidity % | barometer mb |
| 20260506123052 | 61 | 143 | 2.6 | 7.8 | 0.00 | 0.00 | 0.00 | 82 | 1009.2 |
| 20260506121553 | 61 | 0 | 1.7 | 4.3 | 0.00 | 0.00 | 0.00 | 83 | 1009.6 |
| 20260506120115 | 60 | 236 | 1.7 | 7.0 | 0.00 | 0.00 | 0.00 | 86 | 1009.7 |
| 20260506114545 | 59 | 207 | 1.7 | 5.2 | 0.00 | 0.00 | 0.00 | 86 | 1009.7 |
| 20260506113049 | 59 | 190 | 1.7 | 6.1 | 0.00 | 0.00 | 0.00 | 87 | 1009.6 |
| 20260506111546 | 58 | 169 | 1.7 | 5.2 | 0.00 | 0.00 | 0.00 | 88 | 1009.4 |
| 20260506110051 | 57 | 227 | 0.9 | 4.3 | 0.00 | 0.00 | 0.00 | 88 | 1009.6 |
| 20260506104548 | 57 | 207 | 0.9 | 4.3 | 0.00 | 0.00 | 0.00 | 89 | 1009.4 |
| 20260506103052 | 56 | 178 | 2.6 | 6.1 | 0.00 | 0.00 | 0.00 | 89 | 1009.4 |
| 20260506101549 | 56 | 167 | 1.7 | 7.8 | 0.00 | 0.00 | 0.00 | 89 | 1009.4 |
| 20260506100049 | 56 | 0 | 0.9 | 4.3 | 0.00 | 0.00 | 0.00 | 89 | 1009.4 |
| 20260506094549 | 56 | 207 | 1.7 | 7.0 | 0.00 | 0.00 | 0.00 | 89 | 1009.3 |
| 20260506093052 | 56 | 143 | 0.0 | 5.2 | 0.00 | 0.00 | 0.00 | 88 | 1009.2 |
| 20260506091547 | 56 | 0 | 0.0 | 6.1 | 0.00 | 0.00 | 0.00 | 88 | 1009.3 |
| 20260506090046 | 56 | 202 | 1.7 | 10.4 | 0.00 | 0.00 | 0.00 | 88 | 1009.3 |
| 20260506084546 | 56 | 0 | 0.9 | 4.3 | 0.00 | 0.00 | 0.00 | 87 | 1009.5 |
| 20260506083053 | 56 | 290 | 0.9 | 3.5 | 0.00 | 0.00 | 0.00 | 87 | 1009.5 |
| 20260506081551 | 57 | 204 | 1.7 | 7.0 | 0.00 | 0.00 | 0.00 | 87 | 1009.5 |
| 20260506073043 | 57 | 203 | 0.9 | 6.1 | 0.00 | 0.00 | 0.00 | 87 | 1009.6 |
| 20260506071553 | 57 | 0 | 0.9 | 5.2 | 0.00 | 0.00 | 0.00 | 86 | 1009.9 |
| 20260506070109 | 57 | 144 | 1.7 | 7.8 | 0.00 | 0.00 | 0.00 | 86 | 1009.8 |
| 20260506061546 | 57 | 142 | 0.9 | 7.0 | 0.00 | 0.00 | 0.00 | 85 | 1009.9 |
| 20260506044555 | 58 | 113 | 0.0 | 4.3 | 0.00 | 0.00 | 0.00 | 82 | 1010.3 |
| 20260506043049 | 59 | 191 | 1.7 | 7.0 | 0.00 | 0.00 | 0.00 | 82 | 1010.3 |
| 20260506041551 | 59 | 182 | 1.7 | 5.2 | 0.00 | 0.00 | 0.00 | 80 | 1010.2 |
| 20260506040051 | 60 | 157 | 1.7 | 5.2 | 0.00 | 0.00 | 0.00 | 79 | 1010.2 |
| 20260506034552 | 61 | 166 | 0.9 | 3.5 | 0.00 | 0.00 | 0.00 | 77 | 1010.2 |
| 20260506033048 | 61 | 160 | 0.9 | 3.5 | 0.00 | 0.00 | 0.00 | 76 | 1010.2 |
| 20260506031554 | 61 | 134 | 1.7 | 6.1 | 0.00 | 0.00 | 0.00 | 76 | 1009.9 |
| 20260506030105 | 61 | 185 | 1.7 | 6.1 | 0.00 | 0.00 | 0.00 | 75 | 1009.9 |
| 20260506024544 | 62 | 202 | 1.7 | 7.0 | 0.00 | 0.00 | 0.00 | 75 | 1010.1 |
| 20260506023049 | 62 | 192 | 1.7 | 7.0 | 0.00 | 0.00 | 0.00 | 74 | 1010.1 |
| 20260506021547 | 63 | 173 | 0.9 | 6.1 | 0.00 | 0.00 | 0.00 | 73 | 1010.1 |
| 20260506020048 | 64 | 249 | 2.6 | 8.7 | 0.00 | 0.00 | 0.00 | 71 | 1010.0 |
| 20260506014543 | 64 | 224 | 0.9 | 8.7 | 0.00 | 0.00 | 0.00 | 72 | 1009.9 |
| 20260506013047 | 64 | 200 | 2.6 | 10.4 | 0.00 | 0.00 | 0.00 | 71 | 1009.8 |
| 20260506011553 | 64 | 161 | 2.6 | 7.8 | 0.00 | 0.00 | 0.00 | 71 | 1009.7 |
| 20260506010043 | 64 | 153 | 0.9 | 7.8 | 0.00 | 0.00 | 0.00 | 72 | 1009.5 |
| 20260506004618 | 64 | 163 | 1.7 | 6.1 | 0.00 | 0.00 | 0.00 | 73 | 1009.2 |
| 20260506003049 | 64 | 225 | 1.7 | 7.0 | 0.00 | 0.00 | 0.00 | 73 | 1009.1 |
| 20260506001538 | 64 | 124 | 3.5 | 11.3 | 0.00 | 0.00 | 0.00 | 72 | 1008.9 |
| 20260506000048 | 64 | 187 | 3.5 | 7.8 | 0.00 | 0.00 | 0.00 | 72 | 1008.9 |
| 20260505234607 | 64 | 201 | 2.6 | 13.0 | 0.00 | 0.00 | 0.00 | 72 | 1008.7 |
| 20260505233041 | 65 | 175 | 3.5 | 7.0 | 0.00 | 0.00 | 0.00 | 71 | 1008.5 |
| 20260505231549 | 65 | 207 | 1.7 | 7.0 | 0.00 | 0.00 | 0.00 | 71 | 1008.2 |
| 20260505230051 | 65 | 240 | 2.6 | 12.2 | 0.00 | 0.00 | 0.00 | 71 | 1008.0 |
| 20260505224544 | 66 | 159 | 3.5 | 11.3 | 0.00 | 0.00 | 0.00 | 70 | 1007.7 |
| 20260505223058 | 67 | 196 | 2.6 | 8.7 | 0.00 | 0.00 | 0.00 | 68 | 1007.6 |
| 20260505221557 | 67 | 146 | 2.6 | 7.0 | 0.00 | 0.00 | 0.00 | 68 | 1007.6 |
| 20260505220119 | 68 | 184 | 3.5 | 8.7 | 0.00 | 0.00 | 0.00 | 67 | 1007.5 |
| 20260505214604 | 68 | 190 | 3.5 | 9.6 | 0.00 | 0.00 | 0.00 | 67 | 1007.5 |
| 20260505213051 | 67 | 107 | 2.6 | 9.6 | 0.00 | 0.00 | 0.00 | 67 | 1007.3 |
| 20260505211559 | 67 | 190 | 5.2 | 13.9 | 0.00 | 0.00 | 0.00 | 67 | 1007.2 |
| 20260505210051 | 67 | 192 | 5.2 | 13.9 | 0.00 | 0.00 | 0.00 | 67 | 1007.2 |
| 20260505204545 | 68 | 188 | 5.2 | 13.0 | 0.00 | 0.00 | 0.00 | 66 | 1007.4 |
| 20260505203045 | 69 | 188 | 5.2 | 15.6 | 0.00 | 0.00 | 0.00 | 64 | 1007.5 |
| 20260505201602 | 71 | 199 | 5.2 | 12.2 | 0.00 | 0.00 | 0.00 | 62 | 1007.5 |
| 20260505200104 | 72 | 232 | 4.3 | 12.2 | 0.00 | 0.00 | 0.00 | 61 | 1007.6 |
| 20260505194555 | 72 | 158 | 4.3 | 9.6 | 0.00 | 0.00 | 0.00 | 62 | 1007.9 |
| 20260505193046 | 71 | 230 | 4.3 | 9.6 | 0.00 | 0.00 | 0.00 | 64 | 1008.3 |
| 20260505191553 | 71 | 205 | 3.5 | 9.6 | 0.00 | 0.00 | 0.00 | 63 | 1008.4 |
| 20260505190051 | 71 | 175 | 3.5 | 10.4 | 0.00 | 0.00 | 0.00 | 62 | 1008.8 |
| 20260505184550 | 71 | 200 | 5.2 | 11.3 | 0.00 | 0.00 | 0.00 | 63 | 1008.9 |
| 20260505183052 | 71 | 130 | 3.5 | 7.8 | 0.00 | 0.00 | 0.00 | 66 | 1009.0 |
| 20260505181549 | 70 | 141 | 4.3 | 8.7 | 0.00 | 0.00 | 0.00 | 65 | 1009.0 |
| 20260505180050 | 71 | 171 | 3.5 | 9.6 | 0.00 | 0.00 | 0.00 | 66 | 1009.1 |
| 20260505174549 | 73 | 169 | 2.6 | 8.7 | 0.00 | 0.00 | 0.00 | 65 | 1009.2 |
| 20260505173047 | 73 | 197 | 2.6 | 7.0 | 0.00 | 0.00 | 0.00 | 62 | 1009.2 |
| 20260505171543 | 73 | 169 | 4.3 | 10.4 | 0.00 | 0.00 | 0.00 | 61 | 1009.3 |
| 20260505170043 | 72 | 203 | 3.5 | 10.4 | 0.00 | 0.00 | 0.00 | 60 | 1009.5 |
| 20260505164542 | 73 | 133 | 3.5 | 8.7 | 0.00 | 0.00 | 0.00 | 61 | 1009.7 |
| 20260505163044 | 72 | 178 | 2.6 | 8.7 | 0.00 | 0.00 | 0.00 | 62 | 1009.9 |
| 20260505161544 | 71 | 158 | 2.6 | 7.0 | 0.00 | 0.00 | 0.00 | 64 | 1010.0 |
| 20260505153049 | 70 | 211 | 2.6 | 6.1 | 0.00 | 0.00 | 0.00 | 64 | 1010.2 |
| 20260505151549 | 70 | 162 | 2.6 | 7.0 | 0.00 | 0.00 | 0.00 | 65 | 1010.3 |
| 20260505124553 | 61 | 169 | 1.7 | 4.3 | 0.00 | 0.00 | 0.00 | 79 | 1010.5 |